Theta_e
293 293 293 292 292 292 291 291 290 289 286 285 284 284 283 282 282 281 281 280 280 279 279 279 278 278 276 276 277 277 276 276 274 274 275 275 275 274 275 275 275 274 274
293 292 292 292 293 292 291 287 286 285 286 285 284 284 283 283 282 281 280 280 279 279 279 278 277 278 276 276 276 276 275 275 274 271 273 273 273 273 273 273 273 275 274
293 293 293 292 290 288 286 285 285 284 284 284 284 283 282 282 281 281 280 280 280 279 279 277 277 276 276 275 275 274 275 275 274 273 271 273 272 273 272 272 272 272 274
293 292 290 288 287 286 285 284 283 283 283 283 283 283 282 282 281 281 280 280 279 279 279 278 277 276 276 275 276 275 275 274 273 272 272 271 271 272 271 269 268 271 270
291 289 288 286 285 284 283 282 282 282 282 281 281 281 281 281 282 281 280 279 278 278 279 278 278 277 279 278 277 275 274 273 272 271 270 269 269 269 267 269 268 268 268
289 287 285 284 283 282 282 281 281 280 280 280 280 280 280 281 284 285 282 278 278 278 277 277 277 277 279 280 279 279 277 273 272 270 269 268 269 268 269 268 267 265 262
287 285 283 282 282 281 281 280 279 279 279 278 278 278 278 279 285 286 285 279 278 277 277 277 277 278 276 276 278 278 276 276 275 272 269 269 267 268 269 267 266 264 263
284 283 282 281 281 280 279 279 278 278 277 277 277 277 277 278 283 285 285 280 278 277 277 277 276 276 276 275 275 273 273 272 272 272 271 269 269 270 269 268 264 263 263
284 283 282 281 280 279 279 278 277 277 277 277 277 277 276 276 282 284 284 280 279 277 277 277 276 275 278 280 275 272 272 271 273 273 272 272 271 270 270 264 258 258 257
285 284 283 282 281 280 278 278 277 276 277 276 277 276 276 276 281 283 283 279 277 276 276 276 278 276 279 280 275 272 269 270 268 264 265 265 266 266 267 264 262 257 257
285 283 282 281 280 279 278 276 274 275 275 273 274 275 275 275 276 282 283 279 277 276 275 275 276 280 280 280 279 270 269 268 264 260 261 261 261 262 263 263 262 260 258
280 278 276 275 276 276 275 273 272 271 272 272 270 272 273 274 276 279 282 283 281 276 276 276 275 279 280 280 277 274 275 266 259 256 255 257 259 259 260 260 261 261 261
272 272 271 271 273 273 272 273 270 269 271 272 271 272 273 272 273 279 281 282 282 280 277 277 278 279 279 278 278 275 266 262 259 254 254 257 259 260 259 258 258 259 259
270 270 270 269 270 269 272 272 271 270 269 271 272 272 273 272 272 272 274 276 280 280 281 278 278 278 276 271 269 270 265 263 260 258 257 257 257 256 256 257 255 256 254
269 269 269 270 268 270 271 271 272 274 274 272 273 273 272 272 274 276 275 273 274 277 268 269 269 268 267 265 264 263 262 261 259 259 256 253 256 257 256 255 254 251 248
270 270 270 270 268 269 269 271 277 279 281 281 281 279 276 277 279 280 280 280 280 279 268 266 268 268 267 265 263 262 261 260 258 256 254 255 256 255 254 253 252 247 246
264 268 267 267 267 268 265 267 269 275 279 281 282 282 283 283 283 282 282 282 281 281 275 269 269 267 265 263 262 260 260 259 256 256 255 254 253 251 251 250 250 249 247
261 263 264 266 265 266 266 268 270 270 270 272 276 278 280 281 282 283 284 283 278 279 276 271 269 267 264 262 261 260 259 259 257 257 256 253 248 251 249 248 247 244 244
262 263 262 263 264 266 267 267 268 269 269 269 270 273 272 277 278 280 282 280 276 275 273 267 268 265 262 261 259 259 259 258 257 255 254 252 251 249 247 247 246 247 246
261 263 264 262 264 264 264 265 266 267 268 268 268 269 265 261 263 269 273 277 277 276 267 267 264 262 260 259 258 258 257 256 255 253 253 252 251 250 249 246 244 244 243
262 262 262 263 261 263 264 264 266 266 267 267 268 269 274 271 268 268 270 272 271 270 268 267 263 261 259 258 258 257 256 256 255 254 253 251 250 248 248 247 244 242 242
261 261 262 262 263 263 263 264 264 265 265 266 266 267 273 270 269 269 268 270 265 266 265 264 261 260 259 258 257 257 256 256 255 253 252 251 249 247 247 244 242 241 241
260 261 261 262 261 261 262 263 263 264 264 264 265 265 266 263 265 267 266 265 263 262 262 262 261 259 259 258 258 258 257 256 256 254 252 250 248 247 245 242 241 240 240
259 259 259 260 260 261 261 262 263 263 263 263 264 264 265 265 265 264 263 261 261 260 260 260 260 259 258 257 257 256 256 256 255 253 252 250 249 247 242 240 241 241 242
259 259 259 259 259 259 260 260 261 262 262 263 263 263 264 263 263 261 261 260 260 260 259 259 259 259 258 257 256 255 255 258 254 252 251 250 249 245 241 241 241 241 242
259 259 258 258 258 259 259 260 260 261 261 262 262 263 263 262 262 261 260 260 259 259 259 258 258 258 257 257 257 257 256 257 255 254 251 250 248 245 243 242 242 242 243
Wind_Speed
10 10 10 12 11 7 5 5 6 6 6 6 6 6 5 5 5 5 5 5 6 5 4 5 4 4 3 2 3 2 1 1 3 3 2 3 3 5 6 7 9 10 8
11 10 8 10 11 9 6 6 5 6 5 6 6 5 5 5 6 6 6 5 6 5 5 5 5 3 3 2 2 1 1 2 2 6 5 3 4 6 6 9 9 10 9
10 12 7 5 6 7 7 6 5 5 5 5 6 6 6 6 6 5 5 5 5 5 6 6 5 5 4 3 3 1 2 2 3 4 5 2 4 5 8 8 9 10 9
9 8 7 7 5 5 6 6 6 5 6 6 5 6 6 6 6 5 5 5 5 5 5 5 6 5 5 4 3 2 1 2 3 4 4 6 5 7 7 8 9 8 12
7 6 6 5 5 5 6 6 5 6 6 5 6 5 5 5 4 5 5 5 6 6 5 5 5 6 8 7 3 3 2 2 2 3 4 5 6 7 9 8 10 11 11
6 5 5 5 5 5 5 5 6 5 5 5 6 6 6 4 9 11 8 5 5 6 6 6 6 7 9 8 7 5 3 3 3 2 4 5 7 7 6 8 9 10 10
5 5 5 6 6 6 6 5 5 6 5 7 6 6 6 6 12 13 12 4 5 5 6 6 6 5 6 4 7 7 3 5 3 3 4 4 7 8 8 9 9 9 10
5 6 6 7 6 5 5 6 6 5 6 5 6 6 6 6 13 14 14 5 5 6 6 6 7 7 7 6 5 4 4 3 3 3 2 2 5 5 5 7 9 9 9
7 7 6 6 6 6 7 7 5 4 5 5 5 6 7 6 13 16 14 6 8 8 7 7 8 7 12 15 6 5 4 3 3 2 5 8 9 10 10 4 5 8 6
6 6 6 6 7 8 7 7 4 4 6 4 6 6 7 8 14 17 15 6 9 6 7 8 14 10 15 16 6 5 5 4 2 1 2 4 5 6 9 5 4 5 6
5 5 5 6 7 7 5 3 3 5 5 4 5 5 6 7 9 18 20 9 8 7 7 6 7 17 16 16 13 6 6 3 2 2 0 1 1 2 2 3 3 4 6
1 3 3 3 3 3 5 3 3 3 5 6 5 7 5 6 12 16 21 22 16 9 8 7 7 17 17 16 9 10 10 7 3 2 2 2 1 1 3 3 4 5 7
1 3 3 2 3 3 4 4 2 3 5 6 5 6 8 5 7 19 22 23 24 15 8 11 15 17 18 15 14 10 6 3 3 2 1 2 2 2 4 3 3 5 8
3 4 3 3 3 3 3 3 3 4 4 6 7 9 8 6 7 6 8 10 20 17 16 11 13 14 11 8 3 4 4 3 3 2 2 2 1 2 2 2 2 5 5
2 2 3 2 3 4 4 5 6 8 8 6 9 8 8 9 8 11 11 7 8 12 4 2 3 3 5 4 3 3 3 3 3 2 2 2 2 2 2 1 2 3 2
4 3 3 3 3 3 4 6 11 19 21 22 25 19 9 20 21 20 19 20 21 20 3 4 8 7 7 6 5 4 4 4 3 3 2 2 2 1 2 2 2 2 3
3 5 3 3 3 4 3 4 8 8 15 20 22 24 26 25 24 22 23 22 20 19 9 8 8 7 6 6 5 5 4 3 3 2 2 2 2 2 2 2 2 2 3
3 5 3 4 4 4 4 6 5 7 9 9 10 15 18 22 23 25 24 20 10 14 10 8 9 8 7 7 6 5 4 4 4 3 3 3 3 3 2 2 2 1 2
5 4 4 4 3 5 5 5 6 7 8 9 8 11 10 18 21 23 24 12 10 10 6 6 7 7 6 6 5 5 4 4 4 3 2 3 3 3 2 2 2 3 3
4 6 5 4 5 5 4 5 6 6 8 8 8 9 4 3 4 7 8 9 9 10 7 8 7 6 7 7 6 5 4 4 4 3 3 3 2 3 3 3 2 1 1
5 5 6 5 4 5 5 6 7 7 8 9 9 7 17 10 8 8 8 9 7 4 6 8 8 7 6 6 6 5 5 4 4 4 3 3 3 3 3 3 2 2 1
5 6 6 6 7 7 6 7 7 8 9 10 10 9 19 9 9 8 8 8 4 4 4 5 6 7 8 8 7 6 6 5 5 4 4 4 3 3 2 2 1 1 0
5 7 8 7 5 8 7 7 7 8 9 9 10 9 8 7 8 9 7 6 4 4 4 5 6 6 6 6 6 6 7 6 6 5 5 4 4 3 3 3 2 1 1
6 7 7 8 7 8 8 8 8 9 10 10 9 9 9 8 8 8 7 4 3 3 4 5 5 8 7 6 5 5 4 4 4 5 6 5 4 4 3 3 3 3 3
6 7 8 8 8 9 10 9 9 10 10 10 10 9 9 8 9 7 5 3 3 5 5 6 5 8 9 10 8 7 7 9 6 7 4 5 5 6 4 3 3 3 3
7 8 7 7 8 8 9 10 10 10 10 10 10 9 10 9 8 6 3 4 5 6 7 5 7 9 9 7 7 8 9 9 7 9 6 5 5 4 4 4 5 3 3
Wind_Direction
94 111 116 107 98 98 121 130 151 153 158 139 146 162 161 151 133 128 139 134 125 124 123 128 121 143 127 128 103 94 127 237 261 285 267 306 313 313 327 317 321 318 320
125 115 115 123 135 147 149 171 151 161 147 153 167 165 163 156 158 159 157 147 151 159 158 160 167 157 148 157 132 106 213 258 262 292 294 323 316 330 316 325 327 314 317
126 123 128 148 148 149 162 148 164 147 159 163 172 169 175 170 169 167 158 162 179 173 179 179 180 180 183 192 184 208 240 301 250 277 291 315 316 329 331 323 314 311 313
118 125 149 176 161 148 148 162 154 166 174 183 180 184 181 178 180 169 169 176 191 190 194 188 189 196 196 202 205 230 275 281 274 283 314 313 328 333 320 324 324 326 316
120 152 178 142 142 144 159 166 165 187 191 187 180 187 192 190 186 180 186 193 198 201 204 202 200 201 207 205 193 221 224 248 286 323 316 317 320 333 338 330 322 323 317
162 175 152 150 162 176 165 182 185 193 193 194 195 196 200 205 208 208 197 203 205 204 207 216 205 208 217 222 238 259 260 308 314 321 307 308 317 325 321 329 324 333 333
172 175 166 173 186 190 185 185 199 202 194 210 208 203 216 217 221 220 218 210 215 212 213 210 210 206 204 221 247 261 275 282 291 300 286 321 315 320 329 325 325 322 299
189 187 187 194 196 182 190 209 214 206 212 213 220 216 220 225 228 228 227 204 225 227 220 212 210 200 202 210 217 220 235 221 238 245 113 289 280 319 321 335 331 304 294
203 199 196 189 193 196 213 220 216 213 223 218 220 216 223 228 230 232 229 212 228 230 224 215 214 204 213 225 200 221 232 226 265 328 347 339 342 341 346 6 340 336 320
201 199 194 193 206 212 214 219 205 212 230 221 236 220 219 231 232 235 233 214 227 224 228 219 216 209 221 225 213 201 228 241 172 33 339 357 0 346 3 8 322 324 320
196 202 202 201 210 216 220 199 198 225 234 236 239 241 228 220 235 238 237 225 225 227 227 220 212 226 224 227 233 174 208 143 153 153 357 328 328 344 344 330 323 312 299
199 215 218 221 221 202 214 219 220 198 235 249 244 261 243 235 231 243 243 240 228 223 228 223 212 222 232 232 234 197 244 129 138 115 51 343 313 329 316 308 301 290 282
5 270 266 282 235 200 209 231 235 218 231 255 249 263 263 219 228 243 241 245 245 240 215 213 218 228 229 234 230 222 129 157 148 123 165 234 227 276 286 288 282 273 280
256 264 275 258 271 243 245 222 223 229 223 243 249 252 259 256 240 219 228 244 247 243 237 223 222 220 204 160 150 210 155 172 174 172 186 210 290 297 277 273 289 315 299
273 294 298 272 255 268 237 234 233 240 226 242 250 250 254 255 251 241 231 229 229 229 144 143 166 158 178 165 159 164 164 173 184 171 167 202 258 275 287 303 283 307 264
308 301 272 270 255 256 266 289 261 262 263 258 259 256 249 253 265 263 259 253 240 235 189 187 196 198 197 186 180 183 183 192 187 168 185 205 254 280 270 284 256 244 277
291 299 304 296 286 276 264 246 287 294 273 268 264 265 265 265 259 253 257 260 254 236 223 202 212 200 192 175 172 171 177 175 149 168 185 204 208 252 265 267 271 267 294
318 295 287 284 269 270 264 274 269 276 292 298 277 274 276 280 280 273 260 251 246 240 221 198 202 188 178 173 168 171 166 156 183 200 205 189 187 214 244 264 273 251 284
333 311 292 289 280 273 279 268 261 265 267 273 289 282 272 278 283 276 268 248 231 227 212 190 187 175 166 159 164 159 158 173 181 180 199 185 198 190 236 244 269 274 315
312 312 315 309 308 297 276 277 283 275 278 278 278 278 284 334 277 268 257 262 245 230 187 187 179 164 158 160 157 150 151 167 177 192 209 202 198 200 228 237 227 261 244
319 314 303 307 281 283 284 280 276 273 273 274 274 273 280 275 263 252 256 256 252 222 199 188 168 161 154 146 144 146 159 171 178 191 191 193 179 201 211 225 221 227 264
322 314 317 313 310 305 292 286 286 285 285 286 287 280 286 281 280 273 253 257 208 196 182 173 162 157 155 155 152 155 171 183 180 182 185 180 189 194 196 186 221 214 246
328 327 324 316 300 299 301 294 288 285 286 285 288 289 283 265 270 271 259 248 206 185 165 156 146 139 134 136 147 164 175 188 185 167 172 178 179 191 176 194 188 200 216
320 321 316 315 314 311 305 303 298 288 285 286 286 285 283 280 275 270 263 238 202 165 149 132 132 136 137 143 154 166 176 158 160 170 166 171 183 183 159 188 195 198 231
325 325 324 318 314 310 308 307 306 305 302 299 296 293 293 286 284 272 253 204 165 138 128 128 135 149 155 158 166 175 189 202 175 176 169 167 180 181 179 183 183 193 197
319 316 311 311 312 313 313 313 311 309 307 304 299 294 291 288 282 268 212 170 154 149 152 153 153 151 160 171 175 183 192 195 195 187 168 167 177 186 175 195 201 204 204